Location: Bauerbach
(50.4985°N, 10.3912°E)
Time: 08:26:27
(UTC+00:00)

Cosmos 1992 Rocket - Pass Details

Date: 13 January 2026
Orbit: 754 x 761 km, 74.0° (Epoch: 16 February)

Event Time Altitude Azimuth Distance (km) Brightness Sun altitude
Exits shadow 04:16:52 48° 10° (N) 990 4.5 -27.4°
Maximum altitude 04:18:03 62° 62° (ENE) 856 4.3 -27.3°
Drops below altitude 10° 04:23:11 10° 143° (SE) 2,285 6.9 -26.4°
Sets 04:25:35 0° 147° (SSE) 3,207 7.7 -26.1°
